When you browse on this site, cookies collect data to enhance your experience and personalize the content and advertising you see.
Visit our Privacy Policy to learn more. By continuing to use the site, you agree to this use of cookies and data.
  • In Spain
  • List of Countries
  • For 7 days
  • Water Temperature
  • Weather Map
  • Weather Widgets
  • user-avatar
    Login

    Hourly Weather Rengo

    Today, 26 January, Sunday

    Time Temperature Precipitation Wind Pressure Humidity
    00:00 +18°C° 0 mm 0 mps 734 mmHg 42%
    01:00 +18°C° 0 mm 0 mps 734 mmHg 44%
    02:00 +17°C° 0 mm 0 mps 734 mmHg 45%
    03:00 +17°C° 0 mm 0 mps 734 mmHg 46%
    04:00 +17°C° 0 mm 0 mps 734 mmHg 47%
    05:00 +19°C° 0 mm 0 mps 735 mmHg 42%
    06:00 +24°C° 0 mm 1 mps 735 mmHg 37%
    07:00 +25°C° 0 mm 0 mps 736 mmHg 30%
    08:00 +29°C° 0 mm 1 mps 736 mmHg 27%
    09:00 +32°C° 0 mm 2 mps 736 mmHg 24%
    10:00 +35°C° 0 mm 3 mps 736 mmHg 21%
    11:00 +36°C° 0 mm 3 mps 736 mmHg 19%
    12:00 +38°C° 0 mm 3 mps 735 mmHg 17%
    13:00 +39°C° 0 mm 3 mps 735 mmHg 15%
    14:00 +40°C° 0 mm 4 mps 735 mmHg 16%
    15:00 +40°C° 0 mm 4 mps 735 mmHg 17%
    16:00 +40°C° 0 mm 5 mps 734 mmHg 17%
    17:00 +35°C° 0 mm 4 mps 734 mmHg 27%
    18:00 +31°C° 0 mm 3 mps 734 mmHg 36%
    19:00 +27°C° 0 mm 2 mps 734 mmHg 46%
    20:00 +26°C° 0 mm 1 mps 734 mmHg 52%
    21:00 +24°C° 0 mm 1 mps 735 mmHg 58%
    22:00 +21°C° 0 mm 0 mps 735 mmHg 64%
    23:00 +20°C° 0 mm 0 mps 734 mmHg 64%

    Tomorrow, 27 January, Monday

    Time Temperature Precipitation Wind Pressure Humidity
    00:00 +20°C° 0 mm 0 mps 734 mmHg 65%
    01:00 +20°C° 0 mm 0 mps 733 mmHg 66%
    02:00 +19°C° 0 mm 0 mps 733 mmHg 66%
    03:00 +19°C° 0 mm 0 mps 733 mmHg 66%
    04:00 +21°C° 0 mm 1 mps 733 mmHg 67%
    05:00 +23°C° 0 mm 1 mps 733 mmHg 59%
    06:00 +25°C° 0 mm 1 mps 733 mmHg 51%
    07:00 +27°C° 0 mm 1 mps 733 mmHg 43%
    08:00 +30°C° 0 mm 2 mps 733 mmHg 37%
    09:00 +32°C° 0 mm 2 mps 733 mmHg 31%
    10:00 +36°C° 0 mm 3 mps 733 mmHg 25%
    11:00 +37°C° 0 mm 3 mps 733 mmHg 21%
    12:00 +39°C° 0 mm 3 mps 733 mmHg 18%
    13:00 +40°C° 0 mm 3 mps 733 mmHg 14%
    14:00 +41°C° 0 mm 4 mps 733 mmHg 14%
    15:00 +41°C° 0 mm 5 mps 733 mmHg 14%
    16:00 +40°C° 0 mm 6 mps 732 mmHg 13%
    17:00 +35°C° 0 mm 4 mps 732 mmHg 20%
    18:00 +30°C° 0 mm 3 mps 732 mmHg 26%
    19:00 +26°C° 0 mm 2 mps 732 mmHg 32%
    20:00 +25°C° 0 mm 1 mps 732 mmHg 37%
    21:00 +23°C° 0 mm 1 mps 733 mmHg 41%
    22:00 +21°C° 0 mm 1 mps 733 mmHg 46%
    23:00 +21°C° 0 mm 1 mps 732 mmHg 48%

    Day after tomorrow, 28 January, Tuesday

    Time Temperature Precipitation Wind Pressure Humidity
    00:00 +18°C° 0 mm 0 mps 732 mmHg 51%
    01:00 +18°C° 0 mm 0 mps 732 mmHg 53%
    02:00 +17°C° 0 mm 0 mps 732 mmHg 55%
    03:00 +17°C° 0 mm 0 mps 732 mmHg 56%
    04:00 +17°C° 0 mm 0 mps 731 mmHg 58%
    05:00 +18°C° 0 mm 0 mps 732 mmHg 52%
    06:00 +22°C° 0 mm 1 mps 732 mmHg 45%
    07:00 +24°C° 0 mm 1 mps 732 mmHg 39%
    08:00 +27°C° 0 mm 1 mps 732 mmHg 34%
    09:00 +30°C° 0 mm 2 mps 732 mmHg 29%
    10:00 +33°C° 0 mm 3 mps 732 mmHg 24%
    11:00 +34°C° 0 mm 3 mps 732 mmHg 22%
    12:00 +36°C° 0 mm 3 mps 732 mmHg 20%
    13:00 +37°C° 0 mm 4 mps 732 mmHg 18%
    14:00 +36°C° 0 mm 5 mps 732 mmHg 21%
    15:00 +34°C° 0 mm 5 mps 732 mmHg 25%
    16:00 +33°C° 0 mm 6 mps 731 mmHg 28%
    17:00 +30°C° 0 mm 4 mps 732 mmHg 36%
    18:00 +27°C° 0 mm 3 mps 732 mmHg 43%
    19:00 +25°C° 0 mm 1 mps 733 mmHg 51%
    20:00 +23°C° 0 mm 1 mps 733 mmHg 61%
    21:00 +21°C° 0 mm 1 mps 733 mmHg 70%
    22:00 +19°C° 0 mm 1 mps 732 mmHg 79%
    23:00 +16°C° 0 mm 0 mps 732 mmHg 80%

    29 January, Wednesday

    Time Temperature Precipitation Wind Pressure Humidity
    00:00 +16°C° 0 mm 0 mps 732 mmHg 81%
    01:00 +16°C° 0 mm 0 mps 732 mmHg 82%
    02:00 +15°C° 0 mm 0 mps 732 mmHg 83%
    03:00 +15°C° 0 mm 0 mps 732 mmHg 84%
    04:00 +15°C° 0 mm 0 mps 732 mmHg 85%
    05:00 +18°C° 0 mm 1 mps 733 mmHg 77%
    06:00 +20°C° 0 mm 1 mps 733 mmHg 69%
    07:00 +22°C° 0 mm 1 mps 733 mmHg 60%
    08:00 +24°C° 0 mm 2 mps 733 mmHg 52%
    09:00 +27°C° 0 mm 2 mps 733 mmHg 44%
    10:00 +29°C° 0 mm 3 mps 733 mmHg 36%
    11:00 +31°C° 0 mm 3 mps 733 mmHg 32%
    12:00 +34°C° 0 mm 3 mps 733 mmHg 28%
    13:00 +35°C° 0 mm 3 mps 733 mmHg 24%
    14:00 +35°C° 0 mm 4 mps 733 mmHg 24%
    15:00 +35°C° 0 mm 4 mps 733 mmHg 25%
    16:00 +35°C° 0 mm 4 mps 733 mmHg 25%
    17:00 +31°C° 0.1 mm 3 mps 733 mmHg 30%
    18:00 +27°C° 0.1 mm 2 mps 734 mmHg 35%
    19:00 +24°C° 0.1 mm 1 mps 734 mmHg 40%
    20:00 +23°C° 0 mm 1 mps 734 mmHg 45%
    21:00 +21°C° 0 mm 1 mps 734 mmHg 50%
    22:00 +17°C° 0 mm 0 mps 734 mmHg 54%
    23:00 +17°C° 0 mm 0 mps 734 mmHg 56%

    30 January, Thursday

    Time Temperature Precipitation Wind Pressure Humidity
    00:00 +16°C° 0 mm 0 mps 733 mmHg 58%
    01:00 +15°C° 0 mm 0 mps 733 mmHg 59%
    02:00 +15°C° 0 mm 0 mps 733 mmHg 58%
    03:00 +15°C° 0 mm 0 mps 733 mmHg 57%
    04:00 +16°C° 0 mm 1 mps 733 mmHg 55%
    05:00 +20°C° 0 mm 1 mps 733 mmHg 47%
    06:00 +22°C° 0 mm 1 mps 733 mmHg 40%
    07:00 +25°C° 0 mm 1 mps 733 mmHg 32%
    08:00 +27°C° 0 mm 1 mps 733 mmHg 28%
    09:00 +30°C° 0 mm 2 mps 733 mmHg 23%
    10:00 +33°C° 0 mm 3 mps 734 mmHg 19%
    11:00 +35°C° 0 mm 3 mps 733 mmHg 17%
    12:00 +37°C° 0 mm 3 mps 733 mmHg 15%
    13:00 +38°C° 0 mm 3 mps 733 mmHg 13%
    14:00 +38°C° 0 mm 4 mps 733 mmHg 12%
    15:00 +38°C° 0 mm 4 mps 733 mmHg 12%
    16:00 +39°C° 0 mm 5 mps 733 mmHg 12%
    17:00 +34°C° 0 mm 4 mps 733 mmHg 17%
    18:00 +29°C° 0 mm 3 mps 733 mmHg 23%
    19:00 +25°C° 0 mm 1 mps 733 mmHg 28%
    20:00 +23°C° 0 mm 1 mps 733 mmHg 32%
    21:00 +22°C° 0 mm 1 mps 733 mmHg 35%
    22:00 +18°C° 0 mm 0 mps 733 mmHg 39%
    23:00 +17°C° 0 mm 0 mps 733 mmHg 40%

    31 January, Friday

    Time Temperature Precipitation Wind Pressure Humidity
    00:00 +17°C° 0 mm 0 mps 733 mmHg 41%
    01:00 +16°C° 0 mm 0 mps 732 mmHg 42%
    02:00 +16°C° 0 mm 0 mps 732 mmHg 42%
    03:00 +16°C° 0 mm 0 mps 733 mmHg 43%
    04:00 +15°C° 0 mm 0 mps 733 mmHg 43%
    05:00 +18°C° 0 mm 0 mps 733 mmHg 37%
    06:00 +21°C° 0 mm 0 mps 733 mmHg 31%
    07:00 +23°C° 0 mm 0 mps 734 mmHg 25%
    08:00 +28°C° 0 mm 1 mps 734 mmHg 21%
    09:00 +31°C° 0 mm 2 mps 734 mmHg 18%
    10:00 +35°C° 0 mm 2 mps 734 mmHg 14%
    11:00 +37°C° 0 mm 3 mps 734 mmHg 12%
    12:00 +38°C° 0 mm 3 mps 734 mmHg 11%
    13:00 +40°C° 0 mm 4 mps 733 mmHg 10%
    14:00 +40°C° 0 mm 4 mps 733 mmHg 11%
    15:00 +39°C° 0 mm 5 mps 733 mmHg 12%
    16:00 +38°C° 0 mm 6 mps 733 mmHg 14%
    17:00 +33°C° 0 mm 4 mps 733 mmHg 19%
    18:00 +28°C° 0 mm 3 mps 733 mmHg 25%
    19:00 +25°C° 0 mm 1 mps 733 mmHg 30%
    20:00 +23°C° 0 mm 1 mps 733 mmHg 35%
    21:00 +21°C° 0 mm 1 mps 733 mmHg 40%
    22:00 +17°C° 0 mm 0 mps 733 mmHg 44%
    23:00 +17°C° 0 mm 0 mps 733 mmHg 47%
    Show more